sat.trackr.live / text

‹ back to catalog

STARLINK-35552

NORAD 66058 · 2025-235A

PAYLOAD ACTIVE UNKNOWN

§ Identity

Operator
Country
US
Launch date
2025-10-19
Launch site
AFETR
Launch vehicle
Mass (kg)
RCS (m²)

Purposes: comms

External: N2YO · Heavens-Above · Gunter

§ Orbital elements

Epoch: 2026-09-20T01:00:44.023680Z

Period
93.85 min
Inclination
53.1593°
Eccentricity
0.0001416
Mean motion
15.34396841 rev/d
Perigee alt
461.7 km
Apogee alt
463.7 km
Semi-major
6,840.8 km
B*
8.8785e-4
RAAN
55.6774°
Arg perigee
59.9097°
Mean anomaly
300.2046°
Rev number
5,277

§ Raw data

STARLINK-355521 66058U 25235A   26263.04217620  .00029737  00000+0  88785-3 0  99992 66058  53.1593  55.6774 0001416  59.9097 300.2046 15.34396841 52778

JSON: /api/v1/satellites/66058 · /tle

For live sub-satellite position, see the globe view (requires WebGL).

§ Visibility from observer

Set your observer location to see the next 7 days of passes ≥ 10°. The values pass through the URL so the page stays shareable.

No JS? Fill the form by hand. The geolocation button needs JavaScript.